This demonstration page uses our WeatherBlox Daily Observations layout. Learn more.

Hourly Observations for April 9, 2018

Temp ( °F °C ) Dew Point ( °F °C ) Humidity (%) Winds ( mph kmh ) Pressure ( in mb ) Visibility ( mi km ) Precip ( " mm )
12:15 am 00:15 Cloudy 35 1.5 27 -2.8 73 73 N 21 33 30 1016 10 16.0934 0 0
12:35 am 00:35 Cloudy 34 1.2 27 -3 74 74 N 18 30 30 1016 10 16.0934 0 0
12:55 am 00:55 Cloudy 34 1.1 26 -3.1 74 74 NNW 7 11 30.03 1017 10 16.0934 0 0
1:15 am 01:15 Cloudy 34 1 26 -3.2 74 74 N 6 9 30.03 1017 10 16.0934 0 0
1:35 am 01:35 Cloudy 34 1 26 -3.1 74 74 N 8 13 30.06 1018 10 16.0934 0 0
1:55 am 01:55 Cloudy 34 0.9 26 -3.3 74 74 NNW 3 6 30.09 1019 10 16.0934 0 0
2:15 am 02:15 Cloudy 33 0.8 26 -3.1 75 75 NW 5 7 30.12 1020 10 16.0934 0 0
2:35 am 02:35 Cloudy 34 1 27 -3 75 75 WNW 3 6 30.12 1020 10 16.0934 0 0
2:55 am 02:55 Cloudy 33 0.8 26 -3.1 75 75 NNW 3 6 30.12 1020 10 16.0934 0 0
3:15 am 03:15 Mostly Cloudy 33 0.4 26 -3.3 77 77 NW 3 6 30.12 1020 10 16.0934 0 0
3:35 am 03:35 Mostly Cloudy 32 0 26 -3.3 79 79 NW 3 6 30.09 1019 10 16.0934 0 0
3:55 am 03:55 Partly Cloudy 32 0 26 -3.5 78 78 N 5 7 30.09 1019 10 16.0934 0 0
4:15 am 04:15 Clear 32 -0.2 26 -3.5 79 79 Calm 30.09 1019 10 16.0934 0 0
4:35 am 04:35 Clear 30 -1 25 -3.7 82 82 N 5 7 30.12 1020 10 16.0934 0 0
4:55 am 04:55 Clear 30 -0.9 25 -3.7 82 82 Calm 30.12 1020 10 16.0934 0 0
5:15 am 05:15 Mostly Cloudy 32 -0.1 26 -3.1 80 80 Calm 30.12 1020 10 16.0934 0 0
5:35 am 05:35 Mostly Cloudy 31 -0.7 26 -3.3 83 83 Calm 30.15 1021 10 16.0934 0 0
5:55 am 05:55 Mostly Cloudy 29 -1.5 26 -3.6 86 86 NNE 5 7 30.15 1021 10 16.0934 0 0
6:15 am 06:15 Cloudy 31 -0.5 27 -2.8 85 85 Calm 30.15 1021 10 16.0934 0 0
6:35 am 06:35 Cloudy 31 -0.5 27 -2.7 85 85 NNE 3 6 30.18 1022 10 16.0934 0 0
6:55 am 06:55 Mostly Cloudy 31 -0.5 27 -2.7 85 85 NNE 6 9 30.18 1022 10 16.0934 0 0
7:15 am 07:15 Sunny 31 -0.7 27 -3 85 85 NNE 3 6 30.18 1022 10 16.0934 0 0
7:35 am 07:35 Mostly Cloudy 31 -0.4 28 -2.5 86 86 NE 7 11 30.18 1022 10 16.0934 0 0
7:55 am 07:55 Cloudy 32 0 28 -2.4 84 84 NNE 13 20 30.21 1023 10 16.0934 0 0
8:15 am 08:15 Cloudy 32 0.1 27 -3 80 80 NNE 12 19 30.21 1023 10 16.0934 0 0
8:35 am 08:35 Cloudy 33 0.4 27 -2.8 79 79 ENE 12 19 30.21 1023 10 16.0934 0 0
8:55 am 08:55 Cloudy 33 0.5 27 -2.7 79 79 NNE 14 22 30.24 1024 10 16.0934 0 0
9:15 am 09:15 Cloudy 33 0.3 28 -2.5 82 82 NNE 16 26 30.24 1024 10 16.0934 0 0
9:35 am 09:35 Cloudy 33 0.6 28 -2.1 82 82 NNE 13 20 30.24 1024 10 16.0934 0 0
9:55 am 09:55 Cloudy 34 0.9 28 -2.1 81 81 NNE 15 24 30.21 1023 10 16.0934 0 0
10:15 am 10:15 Cloudy 34 1.3 28 -2.1 78 78 NNE 13 20 30.24 1024 10 16.0934 0 0
10:35 am 10:35 Cloudy 34 1.3 28 -2.4 77 77 N 12 19 30.24 1024 10 16.0934 0 0
10:55 am 10:55 Cloudy 34 1.2 27 -2.6 76 76 N 12 19 30.3 1026 10 16.0934 0 0
11:15 am 11:15 Cloudy 35 1.9 28 -2.4 73 73 N 14 22 30.27 1025 10 16.0934 0 0
11:35 am 11:35 Cloudy 36 2.4 27 -2.7 69 69 N 16 26 30.3 1026 10 16.0934 0 0
11:55 am 11:55 Cloudy 37 2.8 28 -2.5 68 68 N 14 22 30.3 1026 10 16.0934 0 0
12:15 pm 12:15 Cloudy 39 3.9 29 -1.9 66 66 N 12 19 30.3 1026 10 16.0934 0 0
12:35 pm 12:35 Cloudy 40 4.3 28 -2.3 63 63 N 15 24 30.3 1026 10 16.0934 0 0
12:55 pm 12:55 Cloudy 40 4.2 27 -2.6 62 62 N 16 26 30.3 1026 10 16.0934 0 0
1:15 pm 13:15 Cloudy 38 3.1 27 -2.9 65 65 N 16 26 30.33 1027 10 16.0934 0 0
1:35 pm 13:35 Cloudy 38 3.5 27 -2.6 65 65 NNW 14 22 30.33 1027 10 16.0934 0 0
1:55 pm 13:55 Cloudy 38 3.6 27 -2.9 63 63 NNW 17 28 30.33 1027 10 16.0934 0 0
2:15 pm 14:15 Cloudy 39 3.7 27 -3 62 62 N 15 24 30.33 1027 10 16.0934 0 0
2:35 pm 14:35 Cloudy 39 3.7 26 -3.2 61 61 N 15 24 30.33 1027 10 16.0934 0 0
2:55 pm 14:55 Cloudy 38 3.5 26 -3.2 62 62 N 15 24 30.33 1027 10 16.0934 0 0
3:15 pm 15:15 Cloudy 39 4 26 -3.3 59 59 N 15 24 30.33 1027 10 16.0934 0 0
3:35 pm 15:35 Mostly Cloudy 40 4.5 26 -3.3 57 57 N 15 24 30.33 1027 10 16.0934 0 0
3:55 pm 15:55 Mostly Cloudy 39 3.7 26 -3.4 60 60 N 12 19 30.33 1027 10 16.0934 0 0
4:15 pm 16:15 Partly Cloudy 40 4.4 26 -3.2 58 58 NNE 10 17 30.33 1027 10 16.0934 0 0
4:35 pm 16:35 Partly Cloudy 41 4.9 26 -3.1 57 57 N 12 19 30.33 1027 10 16.0934 0 0
4:55 pm 16:55 Partly Cloudy 41 5.1 27 -3 56 56 N 9 15 30.3 1026 10 16.0934 0 0
5:15 pm 17:15 Sunny 42 5.3 27 -3 55 55 N 10 17 30.3 1026 10 16.0934 0 0
5:35 pm 17:35 Sunny 42 5.4 27 -3 55 55 N 8 13 30.3 1026 10 16.0934 0 0
5:55 pm 17:55 Sunny 41 5 27 -3 57 57 N 5 7 30.3 1026 10 16.0934 0 0
6:15 pm 18:15 Sunny 41 5 27 -3 57 57 NE 5 7 30.3 1026 10 16.0934 0 0
6:35 pm 18:35 Sunny 41 5.1 27 -3 56 56 NNE 5 7 30.3 1026 10 16.0934 0 0
6:55 pm 18:55 Sunny 41 5 27 -2.8 57 57 NE 7 11 30.3 1026 10 16.0934 0 0
7:15 pm 19:15 Sunny 40 4.4 27 -3 59 59 NE 8 13 30.33 1027 10 16.0934 0 0
7:35 pm 19:35 Sunny 39 3.7 27 -3 62 62 ENE 7 11 30.33 1027 10 16.0934 0 0
7:55 pm 19:55 Sunny 37 3 26 -3.5 63 63 E 6 9 30.33 1027 10 16.0934 0 0
8:15 pm 20:15 Clear 35 1.8 25 -3.7 67 67 E 8 13 30.36 1028 10 16.0934 0 0
8:35 pm 20:35 Clear 33 0.7 25 -3.8 72 72 E 7 11 30.36 1028 10 16.0934 0 0
8:55 pm 20:55 Clear 31 -0.6 24 -4.6 75 75 E 7 11 30.36 1028 10 16.0934 0 0
9:15 pm 21:15 Clear 28 -2 22 -5.3 78 78 ESE 7 11 30.42 1030 10 16.0934 0 0
9:35 pm 21:35 Clear 28 -2.2 23 -5.1 81 81 ESE 8 13 30.42 1030 10 16.0934 0 0
9:55 pm 21:55 Clear 28 -2 23 -5.1 80 80 SE 6 9 30.42 1030 10 16.0934 0 0
10:15 pm 22:15 Clear 27 -2.9 22 -5.6 82 82 SE 7 11 30.42 1030 10 16.0934 0 0
10:35 pm 22:35 Clear 26 -3.4 22 -5.7 84 84 SE 8 13 30.42 1030 10 16.0934 0 0
10:55 pm 22:55 Clear 26 -3.3 22 -5.7 84 84 SE 7 11 30.42 1030 10 16.0934 0 0
11:15 pm 23:15 Clear 28 -2.5 23 -5.1 83 83 SSE 3 6 30.42 1030 10 16.0934 0 0
11:35 pm 23:35 Clear 25 -4 20 -6.5 83 83 Calm 30.45 1031 10 16.0934 0 0
11:55 pm 23:55 Clear 25 -3.9 21 -6.1 85 85 SE 3 6 30.42 1030 10 16.0934 0 0

Powered by AerisWeather